カタログに戻る

TYCHE

運用中科学SSO
NORAD 60496·PAYLOAD·🇬🇧 United Kingdom

打ち上げ Aug 16, 2024 から Vandenberg Space Force Base

Loading…

次のパス (今後24時間)

TLE

最新Source: Space-Track

元期: Sep 14, 2026, 12:29 UTC

1 60496U 24149AE  26257.52043114  .00003380  00000-0  13469-3 0  9997
2 60496  97.3688 334.0963 0002132  40.1409 319.9987 15.25901457115521

AllMySatでTYCHEをリアルタイム追跡

Download on the App Store